[[{"header":{"parameterUnit":"m.s-1","parameterCategory":1,"la1":30.2991,"la2":30.254,"lo1":-89.0895,"lo2":-89.0444,"dy":0.0017,"dx":0.0017,"nx":28,"ny":28,"refTime":"2023-11-04T03:00:00:Z","depth":0,"parameterNumber":2,"parameterNumberName":"U-component_of_WINDS"},"data":[0,0,0,0,0,0,0,0,0,0,0,0,0,0,0,0,0,0,0,0,0,0,0,0,0,0,0,0,0,0,0,0,0,0,0,0,0,0,0,0,0,0,0,0,0,0,0,0,0,0,0,0,0,0,0,0,0,0,-2.1268,-2.1269,0,-2.1356,-2.1357,-2.1358,-2.1288,-2.1285,-2.1282,-2.1279,-2.1371,-2.1376,-2.1381,0,0,0,0,0,0,0,0,0,0,0,0,0,-2.1038,-2.1043,-2.1267,-2.1269,-2.127,-2.1356,-2.1357,-2.1358,-2.1288,-2.1285,-2.1281,-2.1277,-2.1369,-2.1375,-2.1381,0,0,0,0,0,0,0,0,0,0,0,0,0,-2.1134,-2.1045,-2.1267,-2.1245,-2.1244,-2.1355,-2.1357,-2.1358,-2.1289,-2.1284,-2.128,-2.1276,-2.1367,-2.1374,-2.1382,-2.152,0,0,-2.1406,-2.141,0,0,0,0,0,0,0,0,-2.1128,-2.1142,-2.1247,-2.1247,-2.1246,-2.1306,-2.131,-2.1413,-2.129,-2.1272,-2.1279,-2.1274,-2.1353,-2.1362,-2.1388,-2.1525,-2.1529,-2.1407,-2.1412,-2.1415,-2.1417,0,0,0,0,0,0,0,-2.1122,-2.1138,-2.1302,-2.1249,-2.1248,-2.1231,-2.1239,-2.1329,-2.1337,-2.1273,-2.1268,-2.128,-2.1352,-2.1381,-2.139,-2.153,-2.1407,-2.1414,-2.1418,-2.1422,-2.1784,-2.1789,0,0,0,0,0,0,-2.1117,-2.1133,-2.13,-2.1305,-2.1175,-2.1239,-2.1248,-2.1291,-2.1335,-2.1338,-2.1283,-2.1276,-2.1369,-2.1381,-2.1393,-2.1557,-2.1415,-2.1422,-2.1427,-2.1779,-2.1785,-2.179,0,0,0,0,0,0,-2.1113,-2.1133,-2.1296,-2.1218,-2.1237,-2.1247,-2.1296,-2.1295,-2.1324,-2.1343,-2.1344,-2.1312,-2.1366,-2.1382,-2.1489,-2.1559,-2.1426,-2.1433,-2.1773,-2.1781,-2.1788,-2.1888,0,0,0,0,0,0,-2.1106,-2.1132,-2.1184,-2.1219,-2.1242,-2.1391,-2.1301,-2.13,-2.1338,-2.1329,-2.137,-2.1372,-2.1364,-2.1478,-2.1497,-2.1568,-2.1439,-2.1767,-2.1777,-2.1785,-2.1878,-2.1898,-2.1914,0,0,0,0,0,-2.1098,-2.1209,-2.1187,-2.1208,-2.1308,-2.1395,-2.1408,-2.1396,-2.1344,-2.1397,-2.1409,-2.1371,-2.1548,-2.1489,-2.151,-2.1585,-2.1763,-2.1774,-2.1785,-2.187,-2.1894,-2.1914,0,0,0,0,0,0,-2.1183,-2.1214,-2.119,-2.1315,-2.1353,-2.1383,-2.145,-2.1421,-2.1475,-2.1465,-2.1448,-2.1458,-2.1571,-2.1588,-2.1522,-2.172,-2.1647,-2.1663,-2.1705,-2.1728,-2.1745,-2.1739,-2.1446,0,0,0,0,0,-2.1216,-2.1285,-2.1308,-2.1416,-2.1437,-2.144,-2.1478,-2.1465,-2.1504,-2.152,-2.1539,-2.1579,-2.1643,-2.1686,-2.1747,-2.188,-2.1888,-2.1942,-2.196,-2.1974,-2.1988,-2.206,-2.2084,-2.1827,-2.1827,-2.1826,0,0,-2.1286,-2.1311,-2.1355,-2.1434,-2.1462,-2.1533,-2.1454,-2.1533,-2.1586,-2.1532,-2.1635,-2.165,-2.1693,-2.1814,-2.1868,-2.1832,-2.2061,-2.1988,-2.2,-2.2006,-2.2074,-2.2098,-2.212,-2.1834,-2.1833,-2.1832,0,0,-2.1449,-2.1475,-2.1568,-2.1597,-2.164,-2.1642,-2.1664,-2.1699,-2.1707,-2.1809,-2.177,-2.1832,-2.1944,-2.1976,-2.2007,-2.2181,-2.2148,-2.2201,-2.2296,-2.2366,-2.2386,-2.2404,-2.2466,-2.2489,-2.2215,-2.2215,-2.2215,0,-2.153,-2.1636,-2.162,-2.1702,-2.1737,-2.169,-2.1785,-2.1814,-2.1875,-2.1901,-2.1859,-2.1997,-2.2023,-2.215,-2.2193,-2.2219,-2.2244,-2.2197,-2.2384,-2.2402,-2.2418,-2.2478,-2.2501,-2.2221,-2.2221,-2.222,-2.2219,0,-2.1734,-2.1808,-2.1878,-2.1937,-2.1981,-2.2069,-2.2065,-2.2111,-2.2094,-2.21,-2.2204,-2.2233,-2.2298,-2.2327,-2.2312,-2.2453,-2.2429,-2.2386,-2.2312,-2.2449,-2.2505,-2.2527,-2.223,-2.2228,-2.2226,-2.2224,0,0,-2.1955,-2.2003,-2.2029,-2.2055,-2.2098,-2.2155,-2.224,-2.2303,-2.2343,-2.2386,-2.2457,-2.2552,-2.2512,-2.2547,-2.2535,-2.2596,-2.2732,-2.2546,-2.2546,-2.258,-2.2889,-2.2922,-2.2948,-2.271,-2.2715,-2.2718,-2.2886,0,-2.212,-2.2269,-2.2256,-2.2396,-2.2464,-2.242,-2.2494,-2.2529,-2.2536,-2.2595,-2.2603,-2.267,-2.2613,-2.2633,-2.2692,-2.2703,-2.2794,-2.2691,-2.2777,-2.278,-2.2768,-2.2977,-2.3012,-2.3169,-2.2907,-2.2911,-2.2914,0,-2.2334,-2.2384,-2.2531,-2.2563,-2.2591,-2.2658,-2.2714,-2.2771,-2.2809,-2.281,-2.2849,-2.2825,-2.2911,-2.2835,-2.2952,-2.2882,-2.2916,-2.2927,-2.2933,-2.2941,-2.2856,-2.2992,-2.3219,-2.3243,-2.2948,-2.2945,-2.2942,0,-2.248,-2.2584,-2.2685,-2.2709,-2.2749,-2.2797,-2.2816,-2.285,-2.2888,-2.2937,-2.2962,-2.3021,-2.3053,-2.3099,-2.3093,-2.3037,-2.3213,-2.3136,-2.3216,-2.3217,-2.3256,-2.3254,-2.3493,-2.3277,-2.3277,-2.3276,-2.3276,0,-2.2667,-2.2759,-2.2752,-2.2814,-2.2916,-2.2899,-2.3,-2.3014,-2.3044,-2.3108,-2.3073,-2.3134,-2.3121,-2.3182,-2.3177,-2.3275,-2.329,-2.3293,-2.3291,-2.3297,-2.3296,-2.3319,-2.3309,-2.3283,-2.3281,-2.328,-2.3279,0,-2.2848,-2.2847,-2.2955,-2.2984,-2.2993,-2.3066,-2.3091,-2.315,-2.3153,-2.3235,-2.3253,-2.326,-2.3329,-2.3327,-2.3406,-2.3402,-2.3523,-2.3508,-2.3511,-2.3508,-2.3589,-2.3581,-2.3851,-2.3886,-2.3648,-2.365,-2.3652,0,-2.2968,-2.3037,-2.3073,-2.3114,-2.3135,-2.3201,-2.324,-2.3226,-2.3268,-2.3316,-2.3369,-2.3435,-2.3487,-2.3601,-2.3613,-2.3673,-2.3659,-2.3749,-2.3668,-2.3671,-2.3661,-2.3657,-2.3664,-2.3766,-2.3768,-2.3771,-2.3772,0,-2.318,-2.3176,-2.3233,-2.329,-2.3337,-2.3382,-2.3422,-2.3457,-2.3448,-2.3497,-2.3567,-2.3608,-2.3688,-2.3754,-2.3811,-2.383,-2.3801,-2.3798,-2.3819,-2.3827,-2.3825,-2.3827,-2.3555,-2.3792,-2.379,-2.3788,-2.3787,-2.3787,-2.3335,-2.3394,-2.3429,-2.3493,-2.3522,-2.356,-2.3617,-2.3627,-2.3686,-2.375,-2.3738,-2.3817,-2.3852,-2.3926,-2.3951,-2.4012,-2.398,-2.4012,-2.402,-2.4028,-2.4037,-2.3815,-2.4022,-2.4022,-2.4021,-2.4021,-2.402,0,-2.3545,-2.3565,-2.3624,-2.3682,-2.3733,-2.3699,-2.3741,-2.3786,-2.3856,-2.3891,-2.3943,-2.4024,-2.4087,-2.4104,-2.4165,-2.4211,-2.4199,-2.4228,-2.4224,-2.4229,-2.4062,-2.4037,-2.4236,-2.4236,-2.4236,-2.4236,-2.4236,-2.4236,-2.3661,-2.376,-2.376,-2.3872,-2.3891,-2.3967,-2.3995,-2.403,-2.4058,-2.4149,-2.4202,-2.4212,-2.4239,-2.4302,-2.4359,-2.4362,-2.4386,-2.4421,-2.4419,-2.4263,-2.4241,-2.422,-2.4197,-2.4426,-2.4427,-2.458,-2.4582,-2.4583]},{"header":{"parameterUnit":"m.s-1","parameterCategory":1,"la1":30.2991,"la2":30.254,"lo1":-89.0895,"lo2":-89.0444,"dy":0.0017,"dx":0.0017,"nx":28,"ny":28,"refTime":"2023-11-04T03:00:00:Z","depth":0,"parameterNumber":3,"parameterNumberName":"V-component_of_WINDS"},"data":[0,0,0,0,0,0,0,0,0,0,0,0,0,0,0,0,0,0,0,0,0,0,0,0,0,0,0,0,0,0,0,0,0,0,0,0,0,0,0,0,0,0,0,0,0,0,0,0,0,0,0,0,0,0,0,0,0,0,-2.8743,-2.8744,0,-2.8781,-2.8782,-2.8782,-2.8763,-2.8762,-2.8761,-2.876,-2.8796,-2.8798,-2.88,0,0,0,0,0,0,0,0,0,0,0,0,0,-2.865,-2.8652,-2.8743,-2.8744,-2.8744,-2.8781,-2.8782,-2.8782,-2.8763,-2.8762,-2.8761,-2.876,-2.8796,-2.8798,-2.88,0,0,0,0,0,0,0,0,0,0,0,0,0,-2.869,-2.8653,-2.8743,-2.8739,-2.8739,-2.8781,-2.8782,-2.8782,-2.8764,-2.8762,-2.8761,-2.8759,-2.8795,-2.8798,-2.88,-2.8847,0,0,-2.8809,-2.881,0,0,0,0,0,0,0,0,-2.8687,-2.8693,-2.8739,-2.874,-2.874,-2.8766,-2.8762,-2.8804,-2.8764,-2.8754,-2.876,-2.8759,-2.8787,-2.879,-2.8801,-2.8849,-2.885,-2.8809,-2.8811,-2.8812,-2.8813,0,0,0,0,0,0,0,-2.8685,-2.8691,-2.8758,-2.874,-2.874,-2.8734,-2.8738,-2.877,-2.8778,-2.8755,-2.8754,-2.8759,-2.8787,-2.8798,-2.8801,-2.8851,-2.8809,-2.8812,-2.8813,-2.8814,-2.8936,-2.8938,0,0,0,0,0,0,-2.8683,-2.8689,-2.8757,-2.8759,-2.871,-2.8737,-2.8742,-2.8759,-2.8778,-2.878,-2.876,-2.8758,-2.8794,-2.8798,-2.8803,-2.8857,-2.8812,-2.8815,-2.8816,-2.8935,-2.8937,-2.8939,0,0,0,0,0,0,-2.8681,-2.8689,-2.8755,-2.8724,-2.8732,-2.874,-2.876,-2.876,-2.8772,-2.8782,-2.8783,-2.877,-2.8793,-2.8799,-2.8836,-2.8858,-2.8816,-2.8818,-2.8933,-2.8936,-2.8938,-2.8967,0,0,0,0,0,0,-2.8678,-2.8688,-2.8707,-2.8724,-2.8734,-2.8789,-2.8761,-2.8762,-2.8777,-2.8774,-2.8791,-2.8793,-2.8792,-2.8832,-2.8839,-2.8861,-2.8821,-2.8931,-2.8934,-2.8937,-2.8964,-2.897,-2.8975,0,0,0,0,0,-2.8675,-2.8714,-2.8708,-2.8717,-2.8758,-2.8791,-2.8796,-2.8795,-2.8779,-2.8797,-2.8803,-2.8792,-2.8855,-2.8836,-2.8843,-2.8867,-2.893,-2.8933,-2.8937,-2.8961,-2.8969,-2.8975,0,0,0,0,0,0,-2.8698,-2.8716,-2.871,-2.8756,-2.8772,-2.8787,-2.881,-2.8803,-2.8823,-2.882,-2.8817,-2.8821,-2.886,-2.8867,-2.8846,-2.8912,-2.8889,-2.8895,-2.8906,-2.8913,-2.8918,-2.8915,-2.8823,0,0,0,0,0,-2.8709,-2.8735,-2.8749,-2.8788,-2.8796,-2.8802,-2.8816,-2.8815,-2.8831,-2.8837,-2.8846,-2.8861,-2.8884,-2.8899,-2.892,-2.8965,-2.8967,-2.8985,-2.8991,-2.8995,-2.8999,-2.9021,-2.9029,-2.895,-2.895,-2.895,0,0,-2.8731,-2.8744,-2.8761,-2.8793,-2.8805,-2.8831,-2.8808,-2.8837,-2.8855,-2.8841,-2.8876,-2.8884,-2.89,-2.8941,-2.8959,-2.8948,-2.9021,-2.9,-2.9003,-2.9005,-2.9026,-2.9033,-2.904,-2.8952,-2.8952,-2.8952,0,0,-2.8784,-2.8797,-2.883,-2.8843,-2.8862,-2.8865,-2.8873,-2.8889,-2.8893,-2.8929,-2.8918,-2.894,-2.898,-2.8991,-2.9002,-2.9058,-2.9048,-2.9065,-2.9094,-2.9116,-2.9122,-2.9127,-2.9145,-2.9152,-2.907,-2.907,-2.907,0,-2.8809,-2.8848,-2.8848,-2.8877,-2.8891,-2.888,-2.8912,-2.8924,-2.8949,-2.8958,-2.8945,-2.8994,-2.9004,-2.9046,-2.906,-2.907,-2.9077,-2.9063,-2.9121,-2.9127,-2.9132,-2.9149,-2.9156,-2.9072,-2.9071,-2.9071,-2.9071,0,-2.8877,-2.8904,-2.8928,-2.8953,-2.8969,-2.9,-2.9003,-2.9019,-2.9016,-2.902,-2.9055,-2.9067,-2.909,-2.91,-2.9097,-2.9142,-2.9134,-2.9122,-2.9099,-2.9141,-2.9157,-2.9164,-2.9074,-2.9074,-2.9073,-2.9073,0,0,-2.8946,-2.8969,-2.8978,-2.8988,-2.9007,-2.9027,-2.9057,-2.908,-2.9093,-2.911,-2.9133,-2.9167,-2.9155,-2.9168,-2.9166,-2.9185,-2.9226,-2.917,-2.917,-2.9178,-2.9274,-2.9282,-2.929,-2.922,-2.9221,-2.9222,-2.9272,0,-2.8999,-2.9051,-2.9051,-2.9099,-2.9123,-2.9112,-2.9137,-2.9151,-2.9155,-2.9175,-2.918,-2.9203,-2.9186,-2.9193,-2.9212,-2.9217,-2.9245,-2.9214,-2.924,-2.9241,-2.9235,-2.9298,-2.9308,-2.9354,-2.9278,-2.9279,-2.928,0,-2.9068,-2.9087,-2.9138,-2.9152,-2.9162,-2.9185,-2.9205,-2.9225,-2.9239,-2.9241,-2.9255,-2.9249,-2.9277,-2.9254,-2.9292,-2.927,-2.9281,-2.9285,-2.9287,-2.9288,-2.9262,-2.93,-2.9369,-2.9375,-2.929,-2.9289,-2.9289,0,-2.9111,-2.915,-2.9184,-2.9194,-2.9211,-2.9227,-2.9235,-2.9248,-2.9262,-2.9279,-2.9287,-2.9308,-2.9318,-2.9334,-2.9333,-2.9317,-2.937,-2.9348,-2.9371,-2.9371,-2.9382,-2.9381,-2.9452,-2.9391,-2.9391,-2.9391,-2.9391,0,-2.917,-2.9201,-2.9204,-2.9225,-2.9258,-2.9257,-2.929,-2.9296,-2.9308,-2.9328,-2.932,-2.934,-2.9339,-2.9358,-2.9358,-2.9388,-2.9393,-2.9394,-2.9393,-2.9394,-2.9394,-2.94,-2.9396,-2.9393,-2.9392,-2.9392,-2.9392,0,-2.9224,-2.9228,-2.9264,-2.9278,-2.9282,-2.9305,-2.9316,-2.9335,-2.9339,-2.9365,-2.9371,-2.9376,-2.9398,-2.94,-2.9425,-2.9425,-2.9461,-2.9457,-2.9456,-2.9455,-2.9477,-2.9475,-2.9554,-2.9563,-2.9498,-2.9498,-2.9499,0,-2.9261,-2.9284,-2.93,-2.9313,-2.9322,-2.9345,-2.9358,-2.9357,-2.9371,-2.9388,-2.9405,-2.9427,-2.9444,-2.9479,-2.9485,-2.9504,-2.9499,-2.9526,-2.9502,-2.9502,-2.9498,-2.9496,-2.9497,-2.953,-2.9531,-2.9531,-2.9532,0,-2.9325,-2.9325,-2.9345,-2.9365,-2.9382,-2.9397,-2.9412,-2.9423,-2.9424,-2.944,-2.9463,-2.9476,-2.9502,-2.9523,-2.9541,-2.9548,-2.9539,-2.9539,-2.9545,-2.9546,-2.9543,-2.9543,-2.9467,-2.9537,-2.9537,-2.9536,-2.9536,-2.9536,-2.937,-2.9389,-2.9403,-2.9425,-2.9436,-2.945,-2.9468,-2.9473,-2.9492,-2.9514,-2.9512,-2.9536,-2.9548,-2.9572,-2.9581,-2.9599,-2.959,-2.9599,-2.9601,-2.9603,-2.9605,-2.9542,-2.9602,-2.9602,-2.9602,-2.9602,-2.9602,0,-2.9432,-2.944,-2.946,-2.9481,-2.9498,-2.9489,-2.9505,-2.9519,-2.9541,-2.9554,-2.957,-2.9595,-2.9615,-2.9622,-2.9641,-2.9654,-2.965,-2.9659,-2.9657,-2.9658,-2.9613,-2.9605,-2.9661,-2.9661,-2.9661,-2.9661,-2.9661,-2.9661,-2.9466,-2.9498,-2.95,-2.9536,-2.9544,-2.9568,-2.9577,-2.9589,-2.9599,-2.9627,-2.9644,-2.9648,-2.9657,-2.9677,-2.9694,-2.9695,-2.9702,-2.9711,-2.9711,-2.9668,-2.9662,-2.9656,-2.9649,-2.9713,-2.9713,-2.9755,-2.9755,-2.9756]}]]